Regional Weather Roundup
Issued by NWS Bismarck, ND

Home | Current Version | Previous Version | Text Only | Print | Product List | Glossary On
Versions: 1 2 3 4 5 6 7 8 9 10 11 12 13 14 15 16 17 18 19 20 21 22 23 24 25 26 27 28 29 30 31 32 33 34 35 36 37 38 39 40 41 42 43 44 45 46 47 48 49 50
000
ASUS43 KBIS 301220
RWRBIS

NWR BROADCAST TEXT
NATIONAL WEATHER SERVICE BISMARCK ND
700 AM CDT WED JUL 30 2014

NOTE: "FAIR" INDICATES FEW OR NO CLOUDS BELOW 12,000 FEET WITH NO
SIGNIFICANT WEATHER AND/OR OBSTRUCTIONS TO VISIBILITY.


CITY           SKY/WX    TMP DP  RH WIND       PRES   REMARKS
WILLISTON      CLEAR     54  52  93 NE6       30.18S
MINOT          CLEAR     57  54  89 CALM      30.16S
MINOT AFB      CLEAR     56  56 100 NW2       30.15F
BISMARCK       CLEAR     54  25  32 CALM      30.17S
DICKINSON      FOG       49  47  93 W5        30.17S VSB 1/4
GARRISON         N/A     54  54 100 N3        30.17S
HETTINGER ARPT CLEAR     47  45  93 CALM      30.17S FOG
JAMESTOWN      CLEAR     52  51  97 W3        30.16S FOG
CARRINGTON     FAIR      52  52 100 NW3       30.18R
CROSBY           N/A     50  50 100 CALM      30.20S
HARVEY         FAIR      52  52 100 CALM      30.16F FOG
HAZEN          FAIR      54  52  94 CALM      30.18R
LINTON         FAIR      52  52 100 E7        30.17S
MANDAN         FAIR      57  55  94 E7        30.18S
RUGBY          FOG       54  54 100 CALM      30.16S VSB 1/2
STANLEY        FOG       50  50 100 CALM      30.19R VSB 3/4
TIOGA          FOG       48  48 100 CALM      30.22S VSB<1/4
WATFORD CITY   FOG       50  50 100 CALM      30.17S VSB 1/2
$$

CITY           SKY/WX    TMP DP  RH WIND       PRES   REMARKS
GRAND FORKS    PTCLDY    55  53  93 W3        30.12S
GRAND FORKS AF CLEAR     53  53 100 W1        30.13S
DEVILS LAKE    CLEAR     57  54  88 CALM      30.14S
FARGO          CLEAR     56  51  84 CALM      30.13S
CANDO          FAIR      50  50 100 NW3       30.16S
CAVALIER       FAIR      57  54  88 W3        30.12S
GRAFTON        FAIR      57  54  88 W3        30.12S
GWINNER        SUNNY     55  55 100 W5        30.16S
LANGDON        FAIR      48  48 100 CALM      30.15S FOG
ROLLA          FAIR      55  55 100 NW3       30.17S
WALHALLA         N/A     54  54 100 CALM        N/A
$$

CITY           SKY/WX    TMP DP  RH WIND       PRES   REMARKS
ABERDEEN       CLEAR     50  49  96 E5        30.16R
MOBRIDGE       MOCLDY    61  55  81 E6        30.13S
BUFFALO          N/A     53  50  89 CALM      30.13R
RAPID CITY     CLEAR     54  51  90 NW5       30.20S
GLASGOW        CLEAR     57  53  86 E7        30.18S
SIDNEY         CLEAR     55  52  88 CALM      30.20S
WOLF POINT     CLEAR     53  49  86 CALM      30.20R
GLENDIVE       CLEAR     54  48  82 NW3       30.22R
MILES CITY     CLEAR     56  45  66 N5        30.20R
BAKER          CLEAR     49  46  90 CALM      30.22R
$$

CITY           SKY/WX    TMP DP  RH WIND       PRES   REMARKS
BILLINGS       PTCLDY    63  53  70 SW10      30.24R
GREAT FALLS    CLEAR     65  45  48 SE9       30.17R
REGINA         PTCLDY    55  54  94 SE6       30.20R
ESTEVAN        PTCLDY    50  50 100 NW5       30.19S
$$




USA.gov is the U.S. government's official web portal to all federal, state and local government web resources and services.